This demonstration page uses our WeatherBlox Daily Observations layout. Learn more.

Left ArrowRight Arrow

40.92945, -100.16068

Hourly Observations for February 2, 2015

Temp ( °F °C ) Dew Point ( °F °C ) Humidity (%) Winds ( mph kmh ) Pressure ( in mb ) Visibility ( mi km ) Precip ( " mm )
12:15 am 00:15 Clear -1 -18.5 -5 -20.7 83 83 Calm 30.56 1035 10 16 N/A
12:35 am 00:35 Clear -1 -18.6 -5 -20.7 84 84 Calm 30.56 1035 10 16 N/A
12:55 am 00:55 Clear -1 -18.6 -5 -20.6 84 84 W 5 7 30.56 1035 10 16 N/A
1:15 am 01:15 Clear -3 -19.2 -7 -21.4 83 83 Calm 30.56 1035 10 16 N/A
1:35 am 01:35 Clear -2 -18.7 -5 -20.6 85 85 WSW 5 7 30.56 1035 10 16 N/A
1:55 am 01:55 Clear -1 -18.1 -4 -20 85 85 WSW 8 13 30.56 1035 10 16 N/A
2:15 am 02:15 Clear -1 -18.1 -4 -20.2 84 84 WSW 6 9 30.53 1034 10 16 N/A
2:35 am 02:35 Clear 0 -18 -4 -20.2 83 83 SW 6 9 30.53 1034 10 16 N/A
2:55 am 02:55 Clear -1 -18.5 -5 -20.6 84 84 SW 7 11 30.53 1034 10 16 N/A
3:15 am 03:15 Clear 0 -18 -5 -20.3 82 82 SW 3 6 30.53 1034 10 16 N/A
3:35 am 03:35 Clear -1 -18.1 -5 -20.3 83 83 SW 6 9 30.50 1033 10 16 N/A
3:55 am 03:55 Clear 0 -17.8 -4 -20.1 82 82 SSW 5 7 30.50 1033 10 16 N/A
4:15 am 04:15 Clear 0 -18 -4 -20.1 84 84 SW 3 6 30.48 1032 10 16 N/A
4:35 am 04:35 Clear 0 -18 -4 -20.1 84 84 S 5 7 30.48 1032 10 16 N/A
4:55 am 04:55 Clear 1 -17.2 -3 -19.2 85 85 Calm 30.42 1030 10 16 N/A
5:15 am 05:15 Clear 0 -17.6 -3 -19.6 85 85 Calm 30.45 1031 10 16 N/A
5:35 am 05:35 Clear 2 -16.5 -1 -18.5 85 85 SE 7 11 30.39 1029 10 16 N/A
5:55 am 05:55 Clear 2 -16.7 -2 -18.9 83 83 SE 6 9 30.39 1029 10 16 N/A
6:15 am 06:15 Clear 2 -16.5 -1 -18.6 84 84 SE 6 9 30.39 1029 10 16 N/A
6:35 am 06:35 Clear 2 -16.5 -2 -18.8 83 83 S 6 9 30.39 1029 10 16 N/A
6:55 am 06:55 Clear 3 -16.2 -1 -18.4 83 83 S 6 9 30.36 1028 10 16 N/A
7:15 am 07:15 Clear 3 -16 -1 -18.2 83 83 S 7 11 30.36 1028 10 16 N/A
7:35 am 07:35 Clear 5 -15 1 -17.5 81 81 S 10 17 30.33 1027 10 16 N/A
7:55 am 07:55 Sunny 5 -14.8 1 -17.5 80 80 S 7 11 30.33 1027 10 16 N/A
8:15 am 08:15 Sunny 7 -13.7 3 -16 83 83 SSW 7 11 30.33 1027 10 16 N/A
8:35 am 08:35 Sunny 10 -12.1 5 -15.1 79 79 S 9 15 30.30 1026 10 16 N/A
8:55 am 08:55 Sunny 11 -11.5 5 -15 76 76 S 10 17 30.27 1025 10 16 N/A
9:15 am 09:15 Mostly Cloudy 12 -11.1 5 -14.9 74 74 S 15 24 30.27 1025 10 16 N/A
9:35 am 09:35 Partly Cloudy 13 -10.4 6 -14.4 73 73 S 12 19 30.24 1024 10 16 N/A
10:00 am 10:00 Mostly Cloudy 17 -8.6 8 -13.2 70 70 SSW 13 20 30.24 1024 10 16 N/A
10:15 am 10:15 Partly Cloudy 18 -7.7 8 -13.1 66 66 SSW 13 20 30.24 1024 10 16 N/A
10:35 am 10:35 Sunny 19 -7.5 10 -12.5 68 68 SSW 14 22 30.21 1023 10 16 N/A
10:55 am 10:55 Sunny 20 -6.9 11 -11.7 69 69 SW 9 15 30.21 1023 10 16 N/A
11:15 am 11:15 Partly Cloudy 21 -6.1 13 -10.7 70 70 WSW 10 17 30.21 1023 10 16 N/A
11:35 am 11:35 Partly Cloudy 22 -5.8 13 -10.4 70 70 SW 13 20 30.21 1023 10 16 N/A
11:55 am 11:55 Sunny 23 -5.1 15 -9.6 71 71 SW 10 17 30.21 1023 10 16 N/A
12:15 pm 12:15 Sunny 24 -4.3 16 -8.9 71 71 WSW 7 11 30.18 1022 10 16 N/A
12:35 pm 12:35 Mostly Cloudy 26 -3.6 18 -7.9 72 72 WSW 10 17 30.18 1022 10 16 N/A
12:55 pm 12:55 Partly Cloudy 28 -2.5 19 -7 72 72 WSW 9 15 30.18 1022 10 16 N/A
1:15 pm 13:15 Sunny 29 -1.8 21 -6.3 72 72 SW 10 17 30.12 1020 10 16 N/A
1:35 pm 13:35 Sunny 30 -1.2 22 -5.5 73 73 SW 13 20 30.12 1020 10 16 N/A
1:55 pm 13:55 Sunny 31 -0.5 23 -4.9 72 72 SW 13 20 30.09 1019 10 16 N/A
2:15 pm 14:15 Sunny 32 0 24 -4.4 73 73 WSW 9 15 30.09 1019 10 16 N/A
2:35 pm 14:35 Sunny 33 0.4 25 -4 73 73 SW 9 15 30.09 1019 10 16 N/A
2:55 pm 14:55 Sunny 33 0.7 26 -3.5 74 74 SW 12 19 30.06 1018 10 16 N/A
3:15 pm 15:15 Sunny 34 1.2 27 -3 74 74 SW 8 13 30.06 1018 10 16 N/A
3:35 pm 15:35 Sunny 35 1.7 27 -2.6 73 73 WSW 8 13 30.06 1018 10 16 N/A
3:55 pm 15:55 Sunny 36 2.2 28 -2.3 72 72 WSW 6 9 30.06 1018 10 16 N/A
4:15 pm 16:15 Sunny 37 2.5 28 -2 73 73 W 7 11 30.06 1018 10 16 N/A
4:35 pm 16:35 Sunny 37 2.5 29 -1.6 75 75 WSW 6 9 30.09 1019 10 16 N/A
4:55 pm 16:55 Sunny 37 2.6 29 -1.5 75 75 Calm 30.09 1019 10 16 N/A
5:15 pm 17:15 Sunny 36 2.4 30 -1.1 78 78 Calm 30.09 1019 10 16 N/A
5:35 pm 17:35 Sunny 34 1.3 29 -1.4 82 82 Calm 30.09 1019 10 16 N/A
5:55 pm 17:55 Sunny 34 1.1 29 -1.7 82 82 Calm 30.09 1019 10 16 N/A
6:15 pm 18:15 Clear 33 0.8 28 -2.2 81 81 S 5 7 30.09 1019 10 16 N/A
6:35 pm 18:35 Clear 30 -1 27 -3 86 86 S 6 9 30.15 1021 10 16 N/A
6:55 pm 18:55 Clear 29 -1.5 26 -3.3 88 88 Calm 30.15 1021 10 16 N/A
7:15 pm 19:15 Clear 30 -1.1 27 -2.9 88 88 SSE 3 6 30.15 1021 10 16 N/A
7:35 pm 19:35 Clear 29 -1.8 26 -3.3 90 90 Calm 30.18 1022 10 16 N/A
7:55 pm 19:55 Clear 28 -2.1 26 -3.3 92 92 Calm 30.18 1022 10 16 N/A
8:15 pm 20:15 Clear 25 -4.1 22 -5.5 90 90 Calm 30.18 1022 10 16 N/A
8:35 pm 20:35 Clear 22 -5.3 21 -6.3 93 93 Calm 30.21 1023 7 11 N/A
8:55 pm 20:55 Clear 23 -5.2 21 -6.1 93 93 Calm 30.21 1023 10 16 N/A
9:15 pm 21:15 Clear 22 -5.5 21 -6.3 94 94 NE 3 6 30.21 1023 7 11 N/A
9:35 pm 21:35 Clear 22 -5.5 21 -6.3 94 94 Calm 30.21 1023 7 11 N/A
9:55 pm 21:55 Clear 23 -5.1 21 -5.9 94 94 Calm 30.21 1023 7 11 N/A
10:15 pm 22:15 Clear 22 -5.8 20 -6.7 93 93 Calm 30.21 1023 7 11 N/A
10:35 pm 22:35 Clear 21 -6.1 19 -7.1 93 93 Calm 30.21 1023 7 11 N/A
10:55 pm 22:55 Clear 21 -5.9 20 -6.8 93 93 Calm 30.21 1023 7 11 N/A
11:15 pm 23:15 Mostly Cloudy with Mist and Fog 21 -5.9 20 -6.6 95 95 Calm 30.21 1023 1 2 N/A
11:35 pm 23:35 Clear 21 -6.2 19 -7 94 94 Calm 30.21 1023 7 11 N/A
11:55 pm 23:55 Clear with Mist and Fog 21 -6 20 -6.7 95 95 Calm 30.21 1023 5 8 N/A

Powered by AerisWeather